Storm Lake, IA

4:58 AM CDT on September 23, 2017 (GMT -0500)
Storm Lake Municipal

Weather History for KSLB - January, 2012

Change the Weather History Date:

Wednesday, January 11, 2012

  Actual Average Record
Temperature  
Mean Temperature 23 °F -  
Max Temperature 33 °F 26 °F 53 °F (2002)
Min Temperature 13 °F 10 °F -11 °F (1997)
Degree Days  
Heating Degree Days 42    
Moisture  
Dew Point 19 °F    
Average Humidity 79    
Maximum Humidity 100    
Minimum Humidity 65    
Precipitation  
Precipitation 0.00 in - - ()
Sea Level Pressure  
Sea Level Pressure 29.76 in    
Wind  
Wind Speed 17 mph (NW)    
Max Wind Speed 38 mph    
Max Gust Speed 46 mph    
Visibility 10 miles    
Events      
Averages and records for this station are not official NWS values.
T = Trace of Precipitation, MM = Missing Value Source: NWS Daily Summary

Daily Weather History Graph

Daily Weather History Graph

Search for Another Location

Airport or City:

Trip Planner

Search our weather history database for the weather conditions in past years. The results will help you decide how hot, cold, wet, or windy it might be!

Date:

Astronomy

Jan. 11, 2012 Rise Set
Actual Time 7:49 AM CST 5:07 PM CST
Civil Twilight 7:18 AM CST 5:39 PM CST
Nautical Twilight 6:43 AM CST 6:14 PM CST
Astronomical Twilight 6:09 AM CST 6:48 PM CST
Moon 8:12 PM CST (1/11) 8:58 AM CST (1/11)
Length of Visible Light 10h 20m
Length of Day
9h 17m
Waning Gibbous, 93% of the Moon is Illuminated
Jan 11
Waning Gibbous
Jan 16
Last Quarter
Jan 23
New
Jan 30
First Quarter
Feb 7
Full

Hourly Weather History & Observations

Time (CST) Temp. Windchill Dew Point Humidity Pressure Visibility Wind Dir Wind Speed Gust Speed Precip Events Conditions
12:15 AM 33.8 °F 25.3 °F 28.4 °F 81% 29.65 in 10.0 mi SSW 11.5 mph - N/A   Clear
12:35 AM 33.8 °F 25.8 °F 26.6 °F 75% 29.64 in 10.0 mi SSW 10.4 mph - N/A   Clear
12:55 AM 32.0 °F 24.2 °F 26.6 °F 80% 29.63 in 10.0 mi SSW 9.2 mph - N/A   Clear
1:15 AM 32.0 °F 24.8 °F 26.6 °F 80% 29.63 in 10.0 mi SSW 8.1 mph - N/A   Clear
1:35 AM 32.0 °F 24.8 °F 26.6 °F 80% 29.63 in 10.0 mi SSW 8.1 mph - N/A   Clear
1:55 AM 32.0 °F 25.6 °F 26.6 °F 80% 29.63 in 10.0 mi SSW 6.9 mph - N/A   Clear
2:15 AM 32.0 °F 25.6 °F 26.6 °F 80% 29.62 in 10.0 mi SSW 6.9 mph - N/A   Clear
2:35 AM 32.0 °F 24.8 °F 26.6 °F 80% 29.62 in 10.0 mi South 8.1 mph - N/A   Clear
2:55 AM 30.2 °F 21.9 °F 26.6 °F 86% 29.61 in 10.0 mi South 9.2 mph - N/A   Clear
3:15 AM 30.2 °F 22.6 °F 26.6 °F 86% 29.60 in 10.0 mi South 8.1 mph - N/A   Clear
3:35 AM 30.2 °F 22.6 °F 26.6 °F 86% 29.60 in 10.0 mi South 8.1 mph - N/A   Clear
3:55 AM 30.2 °F 23.4 °F 26.6 °F 86% 29.59 in 10.0 mi SSW 6.9 mph - N/A   Clear
4:15 AM 28.4 °F 20.4 °F 24.8 °F 86% 29.58 in 10.0 mi South 8.1 mph - N/A   Clear
4:35 AM 28.4 °F 21.2 °F 24.8 °F 86% 29.57 in 10.0 mi South 6.9 mph - N/A   Clear
4:55 AM 30.2 °F 22.6 °F 26.6 °F 86% 29.57 in 10.0 mi SSW 8.1 mph - N/A   Clear
5:15 AM 30.2 °F 23.4 °F 26.6 °F 86% 29.57 in 10.0 mi SW 6.9 mph - N/A   Clear
5:35 AM 28.4 °F 19.7 °F 26.6 °F 93% 29.58 in 10.0 mi WSW 9.2 mph - N/A   Clear
5:55 AM 30.2 °F 21.3 °F 26.6 °F 86% 29.58 in 10.0 mi SW 10.4 mph - N/A   Clear
6:35 AM 28.4 °F 20.4 °F 26.6 °F 93% 29.60 in 10.0 mi NNW 8.1 mph - N/A   Clear
7:15 AM 28.4 °F 19.1 °F 24.8 °F 86% 29.63 in 10.0 mi NNW 10.4 mph - N/A   Clear
7:35 AM 30.2 °F 17.8 °F 28.4 °F 93% 29.64 in 10.0 mi North 19.6 mph 24.2 mph N/A   Clear
7:55 AM 32.0 °F 19.5 °F 28.4 °F 87% 29.65 in 10.0 mi NNW 21.9 mph 28.8 mph N/A   Scattered Clouds
8:15 AM 32.0 °F 18.9 °F 30.2 °F 93% 29.67 in 10.0 mi North 24.2 mph 32.2 mph N/A   Mostly Cloudy
8:35 AM 32.0 °F 19.5 °F 32.0 °F 100% 29.68 in 10.0 mi NNW 21.9 mph 32.2 mph N/A   Overcast
8:55 AM 32.0 °F 17.4 °F 30.2 °F 93% 29.69 in 10.0 mi NNW 31.1 mph 41.4 mph N/A   Overcast
9:15 AM 32.0 °F 17.4 °F 30.2 °F 93% 29.70 in 10.0 mi North 31.1 mph 39.1 mph N/A   Overcast
9:35 AM 32.0 °F 17.2 °F 30.2 °F 93% 29.72 in 10.0 mi North 32.2 mph 41.4 mph N/A   Overcast
9:55 AM 32.0 °F 17.2 °F 30.2 °F 93% 29.72 in 10.0 mi North 32.2 mph 44.9 mph N/A   Overcast
10:15 AM 32.0 °F 17.0 °F 28.4 °F 87% 29.73 in 10.0 mi NNW 33.4 mph 41.4 mph N/A   Overcast
10:35 AM 32.0 °F 17.4 °F 28.4 °F 87% 29.74 in 10.0 mi North 31.1 mph 46.0 mph N/A   Overcast
10:55 AM 32.0 °F 17.0 °F 28.4 °F 87% 29.76 in 10.0 mi North 33.4 mph 41.4 mph N/A   Overcast
11:15 AM 32.0 °F 17.0 °F 28.4 °F 87% 29.75 in 10.0 mi North 33.4 mph 40.3 mph N/A   Overcast
12:35 PM 26.6 °F 8.7 °F 19.4 °F 74% 29.79 in 10.0 mi NNW 38.0 mph 42.6 mph N/A   Unknown
12:55 PM 24.8 °F 6.6 °F 17.6 °F 74% 29.79 in 10.0 mi NNW 35.7 mph 43.7 mph N/A   Overcast
1:15 PM 24.8 °F 8.7 °F 17.6 °F 74% 29.80 in 7.0 mi NNW 26.5 mph 39.1 mph N/A   Overcast
1:35 PM 23.0 °F 5.7 °F 17.6 °F 80% 29.81 in 2.0 mi NNW 28.8 mph 40.3 mph N/A   Overcast
1:55 PM 23.0 °F 4.4 °F 16.0 °F 74% 29.81 in 4.0 mi North 34.5 mph 44.9 mph N/A   Overcast
2:15 PM 22.8 °F 5.7 °F 16.5 °F 77% 29.82 in 5.0 mi NNW 27.6 mph 36.8 mph N/A   Overcast
2:35 PM 23.4 °F 7.1 °F 15.4 °F 72% 29.82 in 10.0 mi North 25.3 mph 40.3 mph N/A   Mostly Cloudy
2:55 PM 23.0 °F 4.4 °F 15.3 °F 72% 29.83 in 10.0 mi North 34.5 mph 40.3 mph N/A   Scattered Clouds
3:15 PM 23.0 °F 5.4 °F 15.1 °F 72% 29.84 in 10.0 mi NNW 29.9 mph 38.0 mph N/A   Mostly Cloudy
3:35 PM 23.0 °F 6.0 °F 14.9 °F 71% 29.85 in 10.0 mi NNW 27.6 mph 38.0 mph N/A   Overcast
3:55 PM 22.8 °F 6.3 °F 14.9 °F 72% 29.86 in 10.0 mi NNW 25.3 mph 33.4 mph N/A   Overcast
4:15 PM 22.1 °F 5.1 °F 14.9 °F 74% 29.86 in 10.0 mi North 26.5 mph 29.9 mph N/A   Overcast
4:35 PM 21.7 °F 4.9 °F 14.7 °F 74% 29.87 in 10.0 mi NNW 25.3 mph 33.4 mph N/A   Overcast
4:55 PM 21.0 °F 4.3 °F 16.0 °F 81% 29.88 in 7.0 mi NNW 24.2 mph 33.4 mph N/A   Overcast
5:15 PM 19.9 °F 2.2 °F 13.5 °F 76% 29.89 in 10.0 mi NNW 26.5 mph 33.4 mph N/A   Overcast
5:35 PM 18.9 °F 0.4 °F 11.5 °F 73% 29.90 in 10.0 mi NNW 27.6 mph 34.5 mph N/A   Overcast
6:15 PM 17.6 °F -1.0 °F 9.3 °F 70% 29.91 in 10.0 mi NNW 26.5 mph 35.7 mph N/A   Overcast
6:35 PM 16.9 °F -0.5 °F 8.6 °F 70% 29.91 in 10.0 mi NNW 21.9 mph 38.0 mph N/A   Overcast
6:55 PM 16.7 °F -3.4 °F 7.7 °F 68% 29.92 in 10.0 mi NNW 31.1 mph 36.8 mph N/A   Overcast
7:15 PM 16.5 °F -2.1 °F 7.7 °F 68% 29.92 in 10.0 mi NNW 25.3 mph 41.4 mph N/A   Overcast
7:35 PM 16.5 °F -3.1 °F 7.7 °F 68% 29.92 in 10.0 mi NNW 28.8 mph 33.4 mph N/A   Overcast
7:55 PM 16.3 °F -3.0 °F 6.6 °F 66% 29.92 in 10.0 mi NNW 27.6 mph 35.7 mph N/A   Overcast
8:15 PM 15.8 °F -2.3 °F 6.6 °F 67% 29.92 in 10.0 mi NNW 23.0 mph 41.4 mph N/A   Overcast
8:35 PM 15.4 °F -5.2 °F 5.7 °F 65% 29.92 in 10.0 mi NNW 31.1 mph 41.4 mph N/A   Overcast
8:55 PM 14.9 °F -4.6 °F 5.4 °F 66% 29.92 in 10.0 mi NNW 26.5 mph 41.4 mph N/A   Overcast
9:15 PM 14.9 °F -3.5 °F 6.4 °F 69% 29.92 in 10.0 mi NNW 23.0 mph 33.4 mph N/A   Overcast
9:35 PM 14.9 °F -3.9 °F 7.3 °F 72% 29.91 in 10.0 mi NNW 24.2 mph 29.9 mph N/A   Overcast
9:55 PM 14.9 °F -4.6 °F 7.3 °F 72% 29.90 in 10.0 mi NNW 26.5 mph 33.4 mph N/A   Overcast
10:15 PM 14.7 °F -3.8 °F 7.3 °F 73% 29.90 in 10.0 mi NNW 23.0 mph 34.5 mph N/A   Overcast
10:35 PM 14.9 °F -2.7 °F 8.1 °F 74% 29.89 in 7.0 mi NNW 20.7 mph 26.5 mph N/A   Overcast
10:55 PM 14.4 °F -4.2 °F 7.2 °F 73% 29.90 in 10.0 mi NNW 23.0 mph 34.5 mph N/A   Overcast
11:15 PM 14.0 °F -4.7 °F 5.0 °F 67% 29.90 in 10.0 mi NNW 23.0 mph 32.2 mph N/A   Overcast
11:35 PM 13.5 °F -5.4 °F 4.5 °F 67% 29.90 in 10.0 mi NNW 23.0 mph 32.2 mph N/A   Overcast
11:55 PM 13.1 °F -3.7 °F 5.0 °F 70% 29.90 in 10.0 mi NNW 17.3 mph 31.1 mph N/A   Overcast